Location: Hilton Head Island
(32.2163°N, 80.7526°W)
Time: 07:21:22
(UTC-04:00)

Altair - Pass Details

Date: 20 February 2026
Orbit: 1502 x 1682 km, 47.2° (Epoch: 8 March)

Event Time Altitude Azimuth Distance (km) Brightness Sun altitude
Exits shadow 05:11:05 35° 292° (WNW) 2,252 7.9 -23.8°
Maximum altitude 05:14:15 46° 336° (NNW) 1,956 7.8 -23.1°
Drops below altitude 10° 05:23:12 10° 48° (NE) 3,736 10.2 -21.2°
Sets 05:26:32 0° 55° (NE) 4,745 11.0 -20.5°
